Location: Fazenda Monte Alegre
(4.8500°S, 38.0333°W)
Time: 16:57:58
(UTC+00:00)

CZ-2D R/B - Pass Details

Date: 24 September 2020
Orbit: 520 x 539 km, 97.4° (Epoch: 24 October)

Event Time Altitude Azimuth Distance (km) Brightness Sun altitude
Rises 21:43:18 0° 180° (S) 2,689 6.9 -19.7°
Reaches altitude 10° 21:45:29 10° 186° (S) 1,797 6.0 -20.2°
Maximum altitude 21:49:11 43° 258° (WSW) 761 4.5 -21.2°
Drops below altitude 10° 21:52:52 10° 331° (NNW) 1,789 6.2 -22.1°
Sets 21:55:02 0° 337° (NNW) 2,677 7.1 -22.6°
